| time (UTC) | temp F | wind direction | speed MPH | gust MPH | rain 1hr in | rain 24hr in | rain mn in | humidity % | barometer mb |
| 20260902093039 | 83 | 360 | 0.0 | 0.0 | 0.00 | 0.00 | 0.00 | 56 | 1019.4 |
| 20260902091525 | 82 | 360 | 0.0 | 0.0 | 0.00 | 0.00 | 0.00 | 59 | 1019.3 |
| 20260902090015 | 80 | 0.0 | 0.0 | 0.00 | 0.00 | 0.00 | 64 | 1019.4 | |
| 20260902084607 | 79 | 5 | 0.0 | 0.0 | 0.00 | 0.00 | 0.00 | 66 | 1019.3 |
| 20260902083103 | 78 | 0.0 | 0.0 | 0.00 | 0.00 | 0.00 | 68 | 1019.3 | |
| 20260902081556 | 76 | 360 | 0.0 | 0.0 | 0.00 | 0.00 | 0.00 | 69 | 1019.4 |
| 20260902080023 | 75 | 360 | 0.0 | 0.0 | 0.00 | 0.00 | 0.00 | 71 | 1019.4 |
| 20260902074506 | 75 | 5 | 0.0 | 0.0 | 0.00 | 0.00 | 0.00 | 71 | 1019.3 |
| 20260902073101 | 73 | 5 | 0.0 | 0.0 | 0.00 | 0.00 | 0.00 | 70 | 1019.4 |
| 20260902071558 | 71 | 360 | 0.0 | 0.0 | 0.00 | 0.00 | 0.00 | 59 | 1019.5 |
| 20260902070019 | 68 | 360 | 0.0 | 0.0 | 0.00 | 0.00 | 0.00 | 34 | 1019.5 |
| 20260902064511 | 66 | 0.0 | 0.0 | 0.00 | 0.00 | 0.00 | 14 | 1019.4 | |
| 20260902063117 | 62 | 0.0 | 0.0 | 0.00 | 0.00 | 0.00 | 13 | 1019.3 | |
| 20260902060033 | 60 | 0.0 | 0.0 | 0.00 | 0.00 | 0.00 | 13 | 1019.0 | |
| 20260902054524 | 61 | 360 | 0.0 | 0.0 | 0.00 | 0.00 | 0.00 | 12 | 1018.8 |
| 20260902053004 | 60 | 5 | 0.0 | 0.0 | 0.00 | 0.00 | 0.00 | 14 | 1018.7 |
| 20260902051604 | 60 | 360 | 0.0 | 0.0 | 0.00 | 0.00 | 0.00 | 15 | 1018.6 |
| 20260902050025 | 60 | 0.0 | 0.0 | 0.00 | 0.00 | 0.00 | 16 | 1018.5 | |
| 20260902044506 | 61 | 360 | 0.0 | 0.0 | 0.00 | 0.00 | 0.00 | 15 | 1018.4 |
| 20260902043110 | 61 | 0.0 | 0.0 | 0.00 | 0.00 | 0.00 | 15 | 1018.5 | |
| 20260902041544 | 60 | 5 | 0.0 | 0.0 | 0.00 | 0.00 | 0.00 | 17 | 1018.5 |
| 20260902040033 | 61 | 5 | 0.0 | 0.0 | 0.00 | 0.00 | 0.00 | 18 | 1018.5 |
| 20260902034510 | 61 | 360 | 0.0 | 0.0 | 0.00 | 0.00 | 0.00 | 19 | 1018.6 |
| 20260902033104 | 61 | 360 | 0.0 | 0.0 | 0.00 | 0.00 | 0.00 | 21 | 1018.7 |
| 20260902031545 | 61 | 5 | 0.0 | 0.0 | 0.00 | 0.00 | 0.00 | 22 | 1018.7 |
| 20260902030037 | 61 | 5 | 0.0 | 0.0 | 0.00 | 0.00 | 0.00 | 24 | 1018.6 |
| 20260902024537 | 62 | 0.0 | 0.0 | 0.00 | 0.00 | 0.00 | 25 | 1018.7 | |
| 20260902023013 | 62 | 360 | 0.0 | 0.0 | 0.00 | 0.00 | 0.00 | 26 | 1018.7 |
| 20260902021520 | 61 | 360 | 0.0 | 0.0 | 0.00 | 0.00 | 0.00 | 29 | 1018.6 |
| 20260902020010 | 62 | 5 | 0.0 | 0.0 | 0.00 | 0.00 | 0.00 | 32 | 1018.5 |
| 20260902014554 | 62 | 5 | 0.0 | 0.0 | 0.00 | 0.00 | 0.00 | 31 | 1018.6 |
| 20260902013040 | 62 | 360 | 0.0 | 0.0 | 0.00 | 0.00 | 0.00 | 35 | 1018.8 |
| 20260902011532 | 62 | 360 | 0.0 | 0.0 | 0.00 | 0.00 | 0.00 | 40 | 1018.6 |
| 20260902010027 | 62 | 360 | 0.0 | 0.0 | 0.00 | 0.00 | 0.00 | 43 | 1018.7 |
| 20260902004523 | 63 | 0.0 | 0.0 | 0.00 | 0.00 | 0.00 | 45 | 1018.8 | |
| 20260902003009 | 63 | 0.0 | 0.0 | 0.00 | 0.00 | 0.00 | 45 | 1018.6 | |
| 20260902001514 | 63 | 5 | 0.0 | 0.0 | 0.00 | 0.00 | 0.00 | 45 | 1018.6 |
| 20260902000101 | 63 | 5 | 0.0 | 0.0 | 0.00 | 0.00 | 0.00 | 51 | 1018.5 |
| 20260901234603 | 64 | 5 | 0.0 | 0.0 | 0.00 | 0.00 | 0.00 | 53 | 1018.5 |
| 20260901233035 | 64 | 0.0 | 0.0 | 0.00 | 0.00 | 0.00 | 54 | 1018.3 | |
| 20260901231523 | 64 | 0.0 | 0.0 | 0.00 | 0.00 | 0.00 | 59 | 1018.2 | |
| 20260901230017 | 65 | 5 | 0.0 | 0.0 | 0.00 | 0.00 | 0.00 | 54 | 1018.0 |
| 20260901224503 | 64 | 5 | 0.0 | 0.0 | 0.00 | 0.00 | 0.00 | 57 | 1017.9 |
| 20260901223115 | 64 | 5 | 0.0 | 0.0 | 0.00 | 0.00 | 0.00 | 62 | 1017.9 |
| 20260901221608 | 64 | 360 | 0.0 | 0.0 | 0.00 | 0.00 | 0.00 | 64 | 1017.7 |
| 20260901220020 | 64 | 360 | 0.0 | 0.0 | 0.00 | 0.00 | 0.00 | 67 | 1017.8 |
| 20260901214506 | 64 | 360 | 0.0 | 0.0 | 0.00 | 0.00 | 0.00 | 69 | 1017.5 |
| 20260901213106 | 65 | 5 | 0.0 | 0.0 | 0.00 | 0.00 | 0.00 | 70 | 1017.2 |
| 20260901211545 | 65 | 360 | 0.0 | 0.0 | 0.00 | 0.00 | 0.00 | 71 | 1017.0 |
| 20260901210046 | 66 | 360 | 0.0 | 0.0 | 0.00 | 0.00 | 0.00 | 72 | 1017.0 |
| 20260901204547 | 66 | 5 | 0.0 | 0.0 | 0.00 | 0.00 | 0.00 | 73 | 1017.0 |
| 20260901203046 | 67 | 5 | 0.0 | 0.0 | 0.00 | 0.00 | 0.00 | 73 | 1016.9 |
| 20260901201530 | 68 | 360 | 0.0 | 0.0 | 0.00 | 0.00 | 0.00 | 73 | 1016.8 |
| 20260901200010 | 68 | 360 | 0.0 | 0.0 | 0.00 | 0.00 | 0.00 | 73 | 1016.8 |
| 20260901194501 | 69 | 0.0 | 0.0 | 0.00 | 0.00 | 0.00 | 72 | 1016.7 | |
| 20260901193055 | 70 | 0.0 | 0.0 | 0.00 | 0.00 | 0.00 | 71 | 1016.4 | |
| 20260901191548 | 72 | 0.0 | 0.0 | 0.00 | 0.00 | 0.00 | 70 | 1016.2 | |
| 20260901190040 | 74 | 5 | 0.0 | 0.0 | 0.00 | 0.00 | 0.00 | 68 | 1016.0 |
| 20260901184529 | 75 | 5 | 0.0 | 0.0 | 0.00 | 0.00 | 0.00 | 67 | 1016.0 |
| 20260901183014 | 76 | 360 | 0.0 | 0.0 | 0.00 | 0.00 | 0.00 | 66 | 1015.8 |
| 20260901181516 | 77 | 5 | 0.0 | 0.0 | 0.00 | 0.00 | 0.00 | 64 | 1015.8 |
| 20260901180104 | 78 | 0.0 | 0.0 | 0.00 | 0.00 | 0.00 | 63 | 1015.9 | |
| 20260901174542 | 79 | 0.0 | 0.0 | 0.00 | 0.00 | 0.00 | 61 | 1015.9 | |
| 20260901173025 | 80 | 5 | 0.0 | 0.0 | 0.00 | 0.00 | 0.00 | 60 | 1015.8 |
| 20260901171521 | 80 | 5 | 0.0 | 0.0 | 0.00 | 0.00 | 0.00 | 60 | 1015.8 |
| 20260901170009 | 81 | 5 | 0.0 | 0.0 | 0.00 | 0.00 | 0.00 | 58 | 1015.9 |
| 20260901164557 | 81 | 0.0 | 0.0 | 0.00 | 0.00 | 0.00 | 57 | 1016.0 | |
| 20260901163046 | 82 | 5 | 0.0 | 0.0 | 0.00 | 0.00 | 0.00 | 56 | 1016.0 |
| 20260901161539 | 83 | 0.0 | 0.0 | 0.00 | 0.00 | 0.00 | 55 | 1015.9 | |
| 20260901160035 | 84 | 5 | 0.0 | 0.0 | 0.00 | 0.00 | 0.00 | 53 | 1015.8 |
| 20260901154510 | 84 | 0.0 | 0.0 | 0.00 | 0.00 | 0.00 | 53 | 1016.0 | |
| 20260901153002 | 83 | 360 | 0.0 | 0.0 | 0.00 | 0.00 | 0.00 | 54 | 1016.1 |
| 20260901151545 | 82 | 360 | 0.0 | 0.0 | 0.00 | 0.00 | 0.00 | 54 | 1016.0 |
| 20260901150034 | 84 | 5 | 0.0 | 0.0 | 0.00 | 0.00 | 0.00 | 53 | 1016.0 |
| 20260901144545 | 85 | 360 | 0.0 | 0.0 | 0.00 | 0.00 | 0.00 | 52 | 1016.0 |
| 20260901143023 | 84 | 5 | 0.0 | 0.0 | 0.00 | 0.00 | 0.00 | 52 | 1016.1 |
| 20260901141510 | 85 | 0.0 | 0.0 | 0.00 | 0.00 | 0.00 | 52 | 1016.3 | |
| 20260901140006 | 84 | 5 | 0.0 | 0.0 | 0.00 | 0.00 | 0.00 | 53 | 1016.3 |
| 20260901134631 | 84 | 0.0 | 0.0 | 0.00 | 0.00 | 0.00 | 53 | 1016.4 | |
| 20260901133054 | 83 | 5 | 0.0 | 0.0 | 0.00 | 0.00 | 0.00 | 53 | 1016.7 |
| 20260901131536 | 83 | 360 | 0.0 | 0.0 | 0.00 | 0.00 | 0.00 | 54 | 1016.8 |
| 20260901130033 | 83 | 360 | 0.0 | 0.0 | 0.00 | 0.00 | 0.00 | 53 | 1016.9 |
| 20260901124519 | 83 | 0.0 | 0.0 | 0.00 | 0.00 | 0.00 | 52 | 1017.3 | |
| 20260901123100 | 84 | 360 | 0.0 | 0.0 | 0.00 | 0.00 | 0.00 | 52 | 1017.1 |
| 20260901121557 | 85 | 0.0 | 0.0 | 0.00 | 0.00 | 0.00 | 51 | 1017.4 | |
| 20260901120030 | 84 | 5 | 0.0 | 0.0 | 0.00 | 0.00 | 0.00 | 53 | 1017.4 |
| 20260901114529 | 84 | 360 | 0.0 | 0.0 | 0.00 | 0.00 | 0.00 | 53 | 1017.5 |
| 20260901113025 | 84 | 0.0 | 0.0 | 0.00 | 0.00 | 0.00 | 54 | 1017.5 | |
| 20260901111504 | 83 | 5 | 0.0 | 0.0 | 0.00 | 0.00 | 0.00 | 56 | 1017.7 |
| 20260901110104 | 82 | 5 | 0.0 | 0.0 | 0.00 | 0.00 | 0.00 | 56 | 1017.6 |
| 20260901104546 | 82 | 360 | 0.0 | 0.0 | 0.00 | 0.00 | 0.00 | 58 | 1017.8 |
| 20260901103029 | 81 | 5 | 0.0 | 0.0 | 0.00 | 0.00 | 0.00 | 61 | 1017.8 |
| 20260901101514 | 82 | 5 | 0.0 | 0.0 | 0.00 | 0.00 | 0.00 | 60 | 1017.7 |
| 20260901100012 | 81 | 5 | 0.0 | 0.0 | 0.00 | 0.00 | 0.00 | 61 | 1017.8 |
| 20260901094504 | 80 | 0.0 | 0.0 | 0.00 | 0.00 | 0.00 | 64 | 1017.7 |